Time,TemperatureF,DewpointF,PressureIn,WindDirection,WindDirectionDegrees,WindSpeedMPH,WindSpeedGustMPH,Humidity,HourlyPrecipIn,Conditions,Clouds,dailyrainin,SoftwareType,DateUTC
2013-03-22 00:02:00,30.4,12.0,30.13,NNW,347,2.0,4.0,46,0.00,,,0.00,weatherlink.com 1.10,2013-03-22 04:02:00,
2013-03-22 00:17:00,30.2,12.0,30.12,NE,42,1.0,4.0,46,0.00,,,0.00,weatherlink.com 1.10,2013-03-22 04:17:00,
2013-03-22 00:32:00,30.1,12.0,30.13,NE,51,0.0,2.0,47,0.00,,,0.00,weatherlink.com 1.10,2013-03-22 04:32:00,
2013-03-22 00:47:00,30.5,12.0,30.13,ENE,70,1.0,5.0,46,0.00,,,0.00,weatherlink.com 1.10,2013-03-22 04:47:00,
2013-03-22 01:02:00,30.0,12.0,30.13,ENE,68,5.0,6.0,47,0.00,,,0.00,weatherlink.com 1.10,2013-03-22 05:02:00,
2013-03-22 01:17:00,29.5,12.0,30.12,East,86,3.0,7.0,48,0.00,,,0.00,weatherlink.com 1.10,2013-03-22 05:17:00,
2013-03-22 01:32:00,29.5,12.0,30.12,East,94,1.0,6.0,48,0.00,,,0.00,weatherlink.com 1.10,2013-03-22 05:32:00,
2013-03-22 01:47:00,29.3,12.0,30.12,ENE,63,3.0,5.0,48,0.00,,,0.00,weatherlink.com 1.10,2013-03-22 05:47:00,
2013-03-22 02:02:00,28.9,12.0,30.13,NNE,22,1.0,4.0,49,0.00,,,0.00,weatherlink.com 1.10,2013-03-22 06:02:00,
2013-03-22 02:17:00,28.4,12.0,30.13,NE,38,1.0,4.0,50,0.00,,,0.00,weatherlink.com 1.10,2013-03-22 06:17:00,
2013-03-22 02:32:00,28.7,12.0,30.13,NE,46,3.0,6.0,50,0.00,,,0.00,weatherlink.com 1.10,2013-03-22 06:32:00,
2013-03-22 02:47:00,28.5,12.0,30.13,NE,45,2.0,5.0,50,0.00,,,0.00,weatherlink.com 1.10,2013-03-22 06:47:00,
2013-03-22 03:02:00,29.3,12.0,30.14,ENE,60,1.0,6.0,49,0.00,,,0.00,weatherlink.com 1.10,2013-03-22 07:02:00,
2013-03-22 03:17:00,28.9,11.0,30.14,NNE,30,0.0,2.0,48,0.00,,,0.00,weatherlink.com 1.10,2013-03-22 07:17:00,
2013-03-22 03:32:00,27.8,11.0,30.13,NE,34,1.0,2.0,50,0.00,,,0.00,weatherlink.com 1.10,2013-03-22 07:32:00,
2013-03-22 03:47:00,27.6,11.0,30.13,North,354,2.0,2.0,51,0.00,,,0.00,weatherlink.com 1.10,2013-03-22 07:47:00,
2013-03-22 04:02:00,27.5,11.0,30.12,NNE,24,1.0,2.0,51,0.00,,,0.00,weatherlink.com 1.10,2013-03-22 08:02:00,
2013-03-22 04:17:00,28.4,12.0,30.12,ENE,58,2.0,4.0,50,0.00,,,0.00,weatherlink.com 1.10,2013-03-22 08:17:00,
2013-03-22 04:32:00,28.6,11.0,30.12,NE,34,0.0,3.0,48,0.00,,,0.00,weatherlink.com 1.10,2013-03-22 08:32:00,
2013-03-22 04:47:00,31.2,14.0,30.12,ENE,57,1.0,2.0,49,0.00,,,0.00,weatherlink.com 1.10,2013-03-22 08:47:00,
2013-03-22 05:02:00,28.9,11.0,30.12,NE,40,2.0,5.0,48,0.00,,,0.00,weatherlink.com 1.10,2013-03-22 09:02:00,
2013-03-22 05:17:00,27.4,11.0,30.11,NNE,33,3.0,4.0,51,0.00,,,0.00,weatherlink.com 1.10,2013-03-22 09:17:00,
2013-03-22 05:32:00,26.9,11.0,30.12,NNE,25,1.0,3.0,52,0.00,,,0.00,weatherlink.com 1.10,2013-03-22 09:32:00,
2013-03-22 05:47:00,26.8,12.0,30.12,NE,40,3.0,3.0,53,0.00,,,0.00,weatherlink.com 1.10,2013-03-22 09:47:00,
2013-03-22 06:02:00,27.4,11.0,30.13,ENE,72,4.0,5.0,51,0.00,,,0.00,weatherlink.com 1.10,2013-03-22 10:02:00,
2013-03-22 06:18:00,27.1,11.0,30.13,NE,48,2.0,5.0,52,0.00,,,0.00,weatherlink.com 1.10,2013-03-22 10:18:00,
2013-03-22 06:32:00,27.0,11.0,30.14,NE,51,2.0,6.0,52,0.00,,,0.00,weatherlink.com 1.10,2013-03-22 10:32:00,
2013-03-22 06:47:00,26.6,12.0,30.14,ENE,64,1.0,4.0,54,0.00,,,0.00,weatherlink.com 1.10,2013-03-22 10:47:00,
2013-03-22 07:03:00,26.3,12.0,30.14,NE,40,3.0,4.0,54,0.00,,,0.00,weatherlink.com 1.10,2013-03-22 11:03:00,
2013-03-22 07:18:00,26.7,12.0,30.15,NNE,13,1.0,4.0,54,0.00,,,0.00,weatherlink.com 1.10,2013-03-22 11:18:00,
2013-03-22 07:33:00,26.9,13.0,30.15,NNE,31,4.0,7.0,55,0.00,,,0.00,weatherlink.com 1.10,2013-03-22 11:33:00,
2013-03-22 07:48:00,27.9,14.0,30.15,East,80,6.0,8.0,57,0.00,,,0.00,weatherlink.com 1.10,2013-03-22 11:48:00,
2013-03-22 08:03:00,27.8,14.0,30.15,ENE,75,1.0,6.0,56,0.00,,,0.00,weatherlink.com 1.10,2013-03-22 12:03:00,
2013-03-22 08:18:00,28.0,15.0,30.16,ENE,67,0.0,6.0,58,0.00,,,0.00,weatherlink.com 1.10,2013-03-22 12:18:00,
2013-03-22 08:33:00,28.2,15.0,30.16,East,97,1.0,7.0,58,0.00,,,0.00,weatherlink.com 1.10,2013-03-22 12:33:00,
2013-03-22 08:48:00,29.2,15.0,30.16,East,88,4.0,7.0,55,0.00,,,0.00,weatherlink.com 1.10,2013-03-22 12:48:00,
2013-03-22 09:03:00,29.1,15.0,30.16,East,97,1.0,7.0,57,0.00,,,0.00,weatherlink.com 1.10,2013-03-22 13:03:00,
2013-03-22 09:18:00,29.6,16.0,30.18,East,100,1.0,5.0,56,0.00,,,0.00,weatherlink.com 1.10,2013-03-22 13:18:00,
2013-03-22 09:34:00,30.5,16.0,30.18,East,99,0.0,3.0,55,0.00,,,0.00,weatherlink.com 1.10,2013-03-22 13:34:00,
2013-03-22 09:48:00,31.0,16.0,30.18,SSE,148,0.0,4.0,55,0.00,,,0.00,weatherlink.com 1.10,2013-03-22 13:48:00,
2013-03-22 10:03:00,30.8,15.0,30.18,SE,128,0.0,7.0,53,0.00,,,0.00,weatherlink.com 1.10,2013-03-22 14:03:00,
2013-03-22 10:18:00,31.7,16.0,30.18,East,86,4.0,6.0,52,0.00,,,0.00,weatherlink.com 1.10,2013-03-22 14:18:00,
2013-03-22 10:33:00,32.7,16.0,30.17,East,91,2.0,7.0,50,0.00,,,0.00,weatherlink.com 1.10,2013-03-22 14:33:00,
2013-03-22 10:48:00,32.7,16.0,30.18,East,98,2.0,5.0,50,0.00,,,0.00,weatherlink.com 1.10,2013-03-22 14:48:00,
2013-03-22 11:03:00,33.9,17.0,30.18,East,95,4.0,7.0,50,0.00,,,0.00,weatherlink.com 1.10,2013-03-22 15:03:00,
2013-03-22 11:18:00,34.9,16.0,30.17,ESE,105,1.0,5.0,47,0.00,,,0.00,weatherlink.com 1.10,2013-03-22 15:18:00,
2013-03-22 11:33:00,35.8,17.0,30.17,East,99,5.0,5.0,47,0.00,,,0.00,weatherlink.com 1.10,2013-03-22 15:33:00,
2013-03-22 11:48:00,36.9,18.0,30.17,NE,51,0.0,5.0,46,0.00,,,0.00,weatherlink.com 1.10,2013-03-22 15:48:00,
2013-03-22 12:03:00,37.7,17.0,30.17,East,86,2.0,4.0,44,0.00,,,0.00,weatherlink.com 1.10,2013-03-22 16:03:00,
2013-03-22 12:18:00,38.0,17.0,30.16,ENE,76,0.0,6.0,43,0.00,,,0.00,weatherlink.com 1.10,2013-03-22 16:18:00,
2013-03-22 12:33:00,40.8,19.0,30.16,ENE,76,0.0,3.0,41,0.00,,,0.00,weatherlink.com 1.10,2013-03-22 16:33:00,
2013-03-22 12:48:00,43.9,19.0,30.16,ENE,76,1.0,3.0,37,0.00,,,0.00,weatherlink.com 1.10,2013-03-22 16:48:00,
2013-03-22 13:03:00,43.5,18.0,30.14,ENE,73,2.0,8.0,36,0.00,,,0.00,weatherlink.com 1.10,2013-03-22 17:03:00,
2013-03-22 13:18:00,42.9,16.0,30.14,SSE,149,4.0,8.0,34,0.00,,,0.00,weatherlink.com 1.10,2013-03-22 17:18:00,
2013-03-22 13:33:00,45.7,17.0,30.14,SSW,198,3.0,10.0,32,0.00,,,0.00,weatherlink.com 1.10,2013-03-22 17:33:00,
2013-03-22 13:48:00,45.8,18.0,30.14,SW,226,5.0,5.0,33,0.00,,,0.00,weatherlink.com 1.10,2013-03-22 17:48:00,
2013-03-22 14:03:00,44.7,17.0,30.14,East,89,4.0,9.0,33,0.00,,,0.00,weatherlink.com 1.10,2013-03-22 18:03:00,
2013-03-22 14:18:00,44.4,15.0,30.14,ESE,120,3.0,8.0,31,0.00,,,0.00,weatherlink.com 1.10,2013-03-22 18:18:00,
2013-03-22 14:33:00,43.4,15.0,30.13,SSE,155,3.0,10.0,32,0.00,,,0.00,weatherlink.com 1.10,2013-03-22 18:33:00,
2013-03-22 14:48:00,45.5,15.0,30.13,SW,233,2.0,8.0,29,0.00,,,0.00,weatherlink.com 1.10,2013-03-22 18:48:00,
2013-03-22 15:03:00,45.6,15.0,30.12,ESE,111,3.0,7.0,29,0.00,,,0.00,weatherlink.com 1.10,2013-03-22 19:03:00,
2013-03-22 15:18:00,44.9,16.0,30.12,SSW,196,3.0,6.0,31,0.00,,,0.00,weatherlink.com 1.10,2013-03-22 19:18:00,
2013-03-22 15:33:00,45.2,17.0,30.11,SE,125,5.0,6.0,33,0.00,,,0.00,weatherlink.com 1.10,2013-03-22 19:33:00,
2013-03-22 15:48:00,46.2,17.0,30.10,East,96,1.0,8.0,31,0.00,,,0.00,weatherlink.com 1.10,2013-03-22 19:48:00,
2013-03-22 16:03:00,44.7,16.0,30.11,WNW,298,3.0,7.0,32,0.00,,,0.00,weatherlink.com 1.10,2013-03-22 20:03:00,
2013-03-22 16:18:00,44.7,18.0,30.11,NE,44,0.0,6.0,35,0.00,,,0.00,weatherlink.com 1.10,2013-03-22 20:18:00,
2013-03-22 16:33:00,45.6,19.0,30.11,North,10,2.0,6.0,34,0.00,,,0.00,weatherlink.com 1.10,2013-03-22 20:33:00,
2013-03-22 16:49:00,44.7,17.0,30.10,NW,313,1.0,6.0,33,0.00,,,0.00,weatherlink.com 1.10,2013-03-22 20:49:00,
2013-03-22 17:04:00,45.3,18.0,30.10,South,179,3.0,9.0,34,0.00,,,0.00,weatherlink.com 1.10,2013-03-22 21:04:00,
2013-03-22 17:19:00,43.7,19.0,30.10,West,267,2.0,6.0,38,0.00,,,0.00,weatherlink.com 1.10,2013-03-22 21:19:00,
2013-03-22 17:34:00,43.3,20.0,30.10,WSW,244,0.0,5.0,40,0.00,,,0.00,weatherlink.com 1.10,2013-03-22 21:34:00,
2013-03-22 17:49:00,43.5,22.0,30.10,SSE,161,0.0,5.0,42,0.00,,,0.00,weatherlink.com 1.10,2013-03-22 21:49:00,
2013-03-22 18:04:00,43.2,21.0,30.10,WNW,293,2.0,5.0,42,0.00,,,0.00,weatherlink.com 1.10,2013-03-22 22:04:00,
2013-03-22 18:19:00,43.3,22.0,30.09,WNW,282,1.0,5.0,43,0.00,,,0.00,weatherlink.com 1.10,2013-03-22 22:19:00,
2013-03-22 18:34:00,43.1,22.0,30.10,WSW,257,0.0,3.0,44,0.00,,,0.00,weatherlink.com 1.10,2013-03-22 22:34:00,
2013-03-22 18:49:00,42.8,21.0,30.11,WSW,239,2.0,5.0,42,0.00,,,0.00,weatherlink.com 1.10,2013-03-22 22:49:00,
2013-03-22 19:04:00,42.9,22.0,30.11,WNW,289,1.0,3.0,43,0.00,,,0.00,weatherlink.com 1.10,2013-03-22 23:04:00,
2013-03-22 19:19:00,42.7,21.0,30.11,West,277,1.0,3.0,43,0.00,,,0.00,weatherlink.com 1.10,2013-03-22 23:19:00,
2013-03-22 19:34:00,43.0,22.0,30.11,WSW,249,0.0,1.0,44,0.00,,,0.00,weatherlink.com 1.10,2013-03-22 23:34:00,
2013-03-22 19:49:00,42.9,21.0,30.11,SW,226,0.0,2.0,42,0.00,,,0.00,weatherlink.com 1.10,2013-03-22 23:49:00,
2013-03-22 20:04:00,42.5,21.0,30.11,West,260,0.0,2.0,43,0.00,,,0.00,weatherlink.com 1.10,2013-03-23 00:04:00,
2013-03-22 20:19:00,42.4,22.0,30.11,WNW,285,1.0,1.0,44,0.00,,,0.00,weatherlink.com 1.10,2013-03-23 00:19:00,
2013-03-22 20:34:00,42.3,22.0,30.12,North,2,0.0,1.0,45,0.00,,,0.00,weatherlink.com 1.10,2013-03-23 00:34:00,
2013-03-22 20:49:00,42.2,23.0,30.12,North,356,1.0,2.0,47,0.00,,,0.00,weatherlink.com 1.10,2013-03-23 00:49:00,
2013-03-22 21:04:00,42.0,22.0,30.12,North,358,2.0,2.0,46,0.00,,,0.00,weatherlink.com 1.10,2013-03-23 01:04:00,
2013-03-22 21:19:00,42.0,23.0,30.13,North,352,1.0,2.0,47,0.00,,,0.00,weatherlink.com 1.10,2013-03-23 01:19:00,
2013-03-22 21:34:00,41.9,23.0,30.13,North,352,0.0,1.0,48,0.00,,,0.00,weatherlink.com 1.10,2013-03-23 01:34:00,
2013-03-22 21:49:00,41.9,24.0,30.13,North,352,0.0,0.0,49,0.00,,,0.00,weatherlink.com 1.10,2013-03-23 01:49:00,
2013-03-22 22:04:00,41.9,23.0,30.14,North,352,0.0,0.0,48,0.00,,,0.00,weatherlink.com 1.10,2013-03-23 02:04:00,
2013-03-22 22:19:00,41.9,24.0,30.13,North,352,0.0,0.0,49,0.00,,,0.00,weatherlink.com 1.10,2013-03-23 02:19:00,
2013-03-22 22:34:00,41.8,24.0,30.13,North,6,1.0,1.0,50,0.00,,,0.00,weatherlink.com 1.10,2013-03-23 02:34:00,
2013-03-22 22:49:00,41.9,24.0,30.13,NNE,32,0.0,1.0,50,0.00,,,0.00,weatherlink.com 1.10,2013-03-23 02:49:00,
2013-03-22 23:04:00,42.1,25.0,30.13,NE,40,0.0,2.0,50,0.00,,,0.00,weatherlink.com 1.10,2013-03-23 03:04:00,
2013-03-22 23:34:00,42.5,25.0,30.13,ENE,63,0.0,2.0,50,0.00,,,0.00,weatherlink.com 1.10,2013-03-23 03:34:00,
2013-03-22 23:49:00,42.4,25.0,30.13,East,96,0.0,3.0,51,0.00,,,0.00,weatherlink.com 1.10,2013-03-23 03:49:00,